Content
SEND FEEDBACK

Daily
Averages
Monthly
Summary
United States of America

ALMONT, COLORADO


Home > North America > United States > Colorado
Elevation: 9858 feet     Latitude: 38 49N     Longitude: 106 37W

WEATHER
 
SELECT A DAY
Number of Records: 198,223;   Date Range: 5/26/05 - 9/14/14
 
SHARE

PRINT THIS DATA

[ ← Previous Day ]
WEATHER ALMANAC - AUGUST 18, 2014
[ Next Day → ]
[ °C ]   °F
Weather ElementAverageHighLow
Temperature68.1 °F75.2 °F (3:54 pm)60.8 °F (11:14 pm)
Dewpoint29.9 °F35.6 °F (7:54 pm)26.6 °F (1:14 pm)
Humidity24.9 %36 % (11:34 pm)17 % (3:54 pm)
Barometer30.42 in30.47 in (2:14 pm)30.39 in (6:34 pm)
Wind Speed1.3 mph9.2 mph (9:14 pm)
Wind Gust21.9 mph (1:14 pm)
Weather ElementAverage
Visibility10 mi
Wind DirectionNE (47.7 °)

Weather ElementTotal
Precipitation---
Cooling Degree Days3 (Base 65)
Growing Degree Days18 (Base 50)
Averaged from 31 records on August 18, 2014
WEATHER CONDITIONS BREAKOUT
WIND DIRECTION BREAKOUT
WEATHER BY HOUR - AUGUST 18, 2014
[ °C ]   °F
Local TimeTemperatureDewpointHumidityBarometerVisibilityWind DirectionWind SpeedGust SpeedPrecipitationEventsConditions
1:14 PM73.4 °F26.6 °F18 %30.45 in10.0 miESE (110°)6.9 mph21.9 mphMostly Cloudy
1:34 PM69.8 °F28.4 °F21 %30.45 in10.0 miCalmOvercast
1:54 PM71.6 °F30.2 °F22 %30.46 in10.0 miWest (280°)3.5 mphMostly Cloudy
2:14 PM68.0 °F30.2 °F24 %30.47 in10.0 miCalmScattered Clouds
2:34 PM66.2 °F30.2 °F26 %30.46 in10.0 miCalmThunderstormThunderstorm
2:53 PM68.0 °F30.2 °F24 %30.46 in10.0 miCalmThunderstormOvercast
3:14 PM69.8 °F26.6 °F20 %30.45 in10.0 miCalmThunderstormScattered Clouds
3:34 PM73.4 °F26.6 °F18 %30.44 in10.0 miCalmClear
3:54 PM75.2 °F26.6 °F17 %30.43 in10.0 miCalmClear
4:14 PM71.6 °F28.4 °F20 %30.42 in10.0 miESE (120°)4.6 mphScattered Clouds
4:34 PM73.4 °F28.4 °F19 %30.42 in10.0 miCalmScattered Clouds
4:54 PM75.2 °F26.6 °F17 %30.41 in10.0 miCalmClear
5:14 PM71.6 °F28.4 °F20 %30.41 in10.0 miCalmScattered Clouds
5:34 PM75.2 °F26.6 °F17 %30.40 in10.0 miCalmScattered Clouds
5:54 PM71.6 °F26.6 °F19 %30.40 in10.0 miCalmScattered Clouds
6:14 PM71.6 °F26.6 °F19 %30.40 in10.0 miCalmScattered Clouds
6:34 PM69.8 °F26.6 °F20 %30.39 in10.0 miCalmScattered Clouds
6:54 PM68.0 °F28.4 °F23 %30.39 in10.0 miCalmClear
7:14 PM69.8 °F28.4 °F21 %30.39 in10.0 miCalmClear
7:34 PM68.0 °F33.8 °F28 %30.40 in10.0 miCalmMostly Cloudy
7:54 PM64.4 °F35.6 °F34 %30.41 in10.0 miCalmScattered Clouds
8:14 PM62.6 °F33.8 °F34 %30.41 in10.0 miCalmScattered Clouds
8:34 PM64.4 °F33.8 °F32 %30.41 in10.0 miCalmClear
8:54 PM64.4 °F32.0 °F30 %30.41 in10.0 miWest (260°)4.6 mphScattered Clouds
9:14 PM62.6 °F32.0 °F32 %30.42 in10.0 miSSE (160°)9.2 mph17.3 mphScattered Clouds
9:34 PM62.6 °F32.0 °F32 %30.42 in10.0 miSSE (150°)5.8 mphScattered Clouds
10:14 PM62.6 °F32.0 °F32 %30.42 in10.0 miWest (270°)3.5 mphOvercast
10:34 PM62.6 °F32.0 °F32 %30.41 in10.0 miCalmMostly Cloudy
10:54 PM62.6 °F32.0 °F32 %30.41 in10.0 miCalmScattered Clouds
11:14 PM60.8 °F32.0 °F34 %30.41 in10.0 miSE (130°)3.5 mphClear
11:34 PM60.8 °F33.8 °F36 %30.41 in10.0 miCalmClear
Hourly data recorded from K7BM, located miles away from Almont, Colorado







STORIES FROM OUR PARTNERS